Voltar ao catálogo

COSMOS 1448

AtivoMilitarPO
NORAD 13949·PAYLOAD·🇷🇺 Russia

Lançado Mar 30, 1983 de Plesetsk Cosmodrome

Loading…

Próximas Passagens (próximas 24 horas)

TLE

AtualizadoSource: Space-Track

Época: Sep 14, 2026, 18:18 UTC

1 13949U 83023A   26257.76272466  .00000055  00000-0  41286-4 0  9999
2 13949  82.9610   7.6307 0028637 232.0168 291.8914 13.76144084182176

Acompanhe COSMOS 1448 em tempo real com AllMySat

Download on the App Store